Other Public Products
Issued by NWS Grand Forks, ND

Home | Current Version | Previous Version | Graphics & Text | Print | Product List | Glossary On
Versions: 1 2 3 4 5 6 7 8 9 10 11 12 13 14 15 16 17 18 19 20 21 22 23 24 25 26 27 28 29 30 31 32 33 34 35 36 37 38 39 40 41 42 43 44 45 46 47 48 49 50
000
FPUS83 KFGF 262131
OPUFGF
PRAIRIE TO PINES WEATHER ROUNDUP
NATIONAL WEATHER SERVICE EASTERN NORTH DAKOTA/GRAND FORKS ND
400 PM CDT MON SEP 26 2016

 **SATELLITE DATA USED TO AUGMENT SKY COVER AT AUTOMATED STATIONS**
 *****  WEATHER ACROSS EASTERN NORTH DAKOTA  *****

CITY           SKY/WX    TMP DP  RH WIND       PRES   REMARKS
GRAND FORKS    MOSUNNY   64  41  42 NW23G32   29.91S
GRAND FORKS AF SUNNY     63  38  39 N18G32    29.92S
GRAND CITY NWS NOT AVBL
BUXTON           N/A     68  43  40 NW25        N/A
DEVILS LAKE    SUNNY     64  29  26 NW26G36   29.99S
FARGO          SUNNY     66  33  29 NW30G36   29.93S
WAHPETON ARPT  CLEAR     66  27  22 NW30G43   29.95S
$$

 *****  WEATHER ACROSS CENTRAL AND WESTERN NORTH DAKOTA  *****

CITY           SKY/WX    TMP DP  RH WIND       PRES   REMARKS
JAMESTOWN      SUNNY     64  33  31 NW25G37   30.02S
BISMARCK       SUNNY     68  33  27 N15G26    30.12S
MINOT          SUNNY     66  34  30 W20G26    30.09F
MINOT AFB      SUNNY     65  33  30 NW18      30.08S
GARRISON         N/A     67  34  29 NW21G31   30.11S
WILLISTON      SUNNY     69  37  30 W15G22    30.15F
DICKINSON      SUNNY     65  34  31 NW16G28   30.16F
HETTINGER      SUNNY     68  39  34 NW16      30.18F
$$

 *****  OTHER OBSERVATIONS NORTHEAST NORTH DAKOTA  *****

CITY           SKY/WX    TMP DP  RH WIND       PRES   REMARKS
WALHALLA       FAIR      63  59  88 NW22G32   29.93S
LANGDON        FAIR      61  37  41 NW23G31   29.96S
CAVALIER       FAIR      63  41  45 NW20G29   29.92S
GRAFTON        FAIR      63  43  48 NW22G33   29.93S
CANDO          FAIR      64  25  22 NW21G35   30.02S
FORT TOTTEN      N/A     65  35  32 NW13      29.95
ROLLA          FAIR      63  25  23 NW25G41   30.02S
RUGBY          FAIR      64  32  29 NW23G33   30.04S
 ***** THE ABOVE OBSERVATIONS ARE NON NWS ARE NOT QUALITY
        CONTROLLED AND MAY MIS-REPORT RAIN FOR SNOW...
$$

 *****  OTHER OBSERVATIONS SOUTHEAST NORTH DAKOTA *****

CITY           SKY/WX    TMP DP  RH WIND       PRES   REMARKS
COOPERSTOWN    FAIR      64  30  27 NW25G38   29.98S
VALLEY CITY    FAIR      64  32  29 NW23G35   30.01S
OAKES          NOT AVBL
GWINNER        FAIR      70  30  23 NW23G33   30.00F
BUFFALO          N/A     65  22  19 NW25        N/A
WYNDMERE         N/A     70  28  21 W20         N/A
 ***** THE ABOVE OBSERVATIONS ARE NON NWS ARE NOT QUALITY
       CONTROLLED AND MAY MIS-REPORT RAIN FOR SNOW...
$$

  *****  WEATHER ACROSS NORTHERN MINNESOTA  *****

CITY           SKY/WX    TMP DP  RH WIND       PRES   REMARKS
FLAG ISLAND    LGT RAIN  52  48  87 NW23      29.74R
WARROAD        CLOUDY    55  46  71 W17G28    29.80R
ROSEAU         CLOUDY    55  46  71 W17G30    29.83R
HALLOCK        SUNNY     59  45  58 NW23G29   29.90R
THF RVR FALLS  CLOUDY    57  43  59 NW18G25   29.89F
HALSTAD          N/A     64  39  40 NW21        N/A
FOSSTON        PTSUNNY   57  39  51 NW20G30   29.90S
BAUDETTE       CLOUDY    54  44  69 NW18G38   29.75R
WASKISH        CLOUDY    55  46  71 W21G28    29.79S
CROOKSTON      SUNNY     61  43  51 NW29G36   29.91F
$$
  *****  WEATHER ACROSS CENTRAL AND WEST MINNESOTA  *****

CITY           SKY/WX    TMP DP  RH WIND       PRES   REMARKS
BEMIDJI        PTSUNNY   56  42  60 W22G33    29.85S
PARK RAPIDS    MOSUNNY   59  37  44 NW29G36   29.87S
WADENA         SUNNY     61  37  41 NW18G29   29.90S
DETROIT LAKES  SUNNY     61  36  39 NW25G32   29.93S
MOORHEAD       SUNNY     66  34  30 NW25G37   29.93S
FERGUS FALLS   SUNNY     64  34  32 NW23G33   29.94F
ELBOW LAKE     FAIR      65  32  29 NW26G38   29.94S
MORRIS MN      SUNNY     70  32  24 NW22G36   29.94S
STAPLES        MOSUNNY   61  36  39 NW21G28   29.89S
WHEATON        LGT RAIN  70  36  28 NW22G32   29.98S
$$
  *****  WEATHER ELSEWHERE ACROSS MINNESOTA  *****

CITY           SKY/WX    TMP DP  RH WIND       PRES   REMARKS
DULUTH         LGT RAIN  52  44  74 W21G32    29.73S
INTRNTL FALLS  LGT RAIN  50  48  93 W14G23    29.69R
ELY            LGT RAIN  48  46  93 W20G33    29.64R
CLOQUET        CLOUDY    55  39  54 W16G22    29.76S
BRAINERD       SUNNY     60  37  42 W17G33    29.86S
HIBBING        CLOUDY    50  43  77 W13G25    29.73S
ALEXANDRIA     SUNNY     65  29  25 NW22G39   29.94R
SAINT CLOUD    MOSUNNY   64  36  35 NW20G30   29.89S
MINNEAPOLIS    MOSUNNY   65  34  31 NW22G37   29.89S
$$

  *****  WEATHER ACROSS SOUTH DAKOTA  *****

CITY           SKY/WX    TMP DP  RH WIND       PRES   REMARKS
SIOUX FALLS    MOSUNNY   71  39  31 NW17G28   30.06F
BROOKINGS      SUNNY     68  31  25 W23G30    30.03F
WATERTOWN      SUNNY     67  32  27 NW20G26   30.03F
HURON          SUNNY     73  32  22 NW22G32   30.07S
SISSETON         N/A     69  29  22 NW25G36   29.97F
ABERDEEN       SUNNY     71  29  21 NW20G32   30.06S
MITCHELL       SUNNY     75  34  22 NW17G30   30.09F
PIERRE         SUNNY     73  38  27 NW16      30.12F
MOBRIDGE       SUNNY     72  34  24 NW21G26   30.09F
RAPID CITY     SUNNY     73  40  30 N23G35    30.21S
$$

  *****  SOME WEATHER IN NEARBY STATES *****

CITY           SKY/WX    TMP DP  RH WIND       PRES   REMARKS
GLASGOW MT     SUNNY     70  42  36 SW7G18    30.17F
GREAT FALLS MT CLOUDY    77  41  27 SW15      30.19F
CHEYENNE WY    SUNNY     72  33  24 NW17G25   30.35F
SCOTTSBLUFF NE SUNNY     76  39  26 NW9       30.27F
OMAHA NE       MOSUNNY   77  41  27 NW15      30.11F
DES MOINES IA  MOSUNNY   74  37  26 W22G32    30.06F
DAVENPORT IA   SUNNY     71  32  23 W21G32    30.00F
CHICAGO IL     MOSUNNY   69  34  27 W18G29    29.92F
EAU CLAIRE WI  CLOUDY    61  39  44 W14G29    29.85R
LA CROSSE WI   SUNNY     70  39  32 W16G24    29.87S
$$

  *****  SOME NATIONAL WEATHER *****

CITY           SKY/WX    TMP DP  RH WIND       PRES   REMARKS
LA GUARDIA NY  PTSUNNY   71  50  47 S13       30.06F
RALEIGH NC     CLOUDY    75  65  70 S6        30.04F
ATLANTA GA     MOSUNNY   86  62  44 SE7       29.99F
NEW ORLEANS LA MOSUNNY   90  68  48 NE3       29.94F HX  94
OKLAHOMA CITY  PTSUNNY   76  37  24 NE15      30.20F
ALBUQUERQUE NM CLOUDY    68  29  23 E16       30.36F
SALT LAKE CITY MOSUNNY   71  45  39 NW9       30.33F
LOS ANGELES CA MOSUNNY   99  21   6 W15       29.87F HX  92
BOISE ID       SUNNY     81  37  20 E10       30.23F
SEATTLE WA     MOSUNNY   73  55  53 W7        30.06F
$$

*** WEATHER ACROSS MANITOBA...SASKATCHEWAN AND ONTARIO ***
                ***ONTARIO***

CITY           SKY/WX    TMP DP  RH WIND       PRES   REMARKS
GERALDTON      PTSUNNY   57  50  77 SE7G17    29.36F
THUNDER BAY    LGT RAIN  55  48  76 W15G23    29.43S
SIOUX LOOKOUT  LGT RAIN  48  48 100 NW16G25   29.50R FOG
TORONTO        LGT RAIN  63  59  88 W21G32    29.83R
BIG TROUT LK   CLOUDY    55  55 100 NE5       29.45S FOG
PICKLE LAKE    LGT RAIN  52  52 100 NW7       29.39S FOG
DRYDEN         LGT RAIN  48  48 100 NW7G21    29.57R FOG
KENORA         LGT RAIN  50  48  93 NW15G26   29.69R
$$
                *** MANITOBA***

CITY           SKY/WX    TMP DP  RH WIND       PRES   REMARKS
BRANDON        MOSUNNY   63  30  29 NW26      30.00S
DAUPHIN        SUNNY     63  36  36 N16G23    29.97S
ISLAND LAKE    LGT RAIN  50  48  93 N15G26    29.71R
PILOT MOUND      N/A     61  30  31 NW25G35     N/A
THE PAS        MOSUNNY   55  43  62 N13G23    30.00S
THOMPSON       LGT RAIN  52  43  71 NW14G21   29.87S
WINNIPEG       PTSUNNY   55  46  71 NW29G40   29.90R
LYNN LAKE      CLOUDY    50  39  66 N14G20    30.00S
CHURCHILL      PTSUNNY   46  43  87 N24G33    29.76R
GILLAM         DRIZZLE   48  46  93 N20G30    29.74R
$$
                ***SASKATCHEWAN***

CITY           SKY/WX    TMP DP  RH WIND       PRES   REMARKS
ESTEVAN        MOSUNNY   66  36  32 NW21      30.12F
KINDERSLEY     MOSUNNY   70  39  32 S10       30.08F
LLOYDMINSTER   MOSUNNY   70  39  32 S13       30.01F
PRINCE ALBERT  MOSUNNY   66  39  37 W7        30.06F
REGINA         MOSUNNY   66  36  32 NW15      30.12F
YORKTON        SUNNY     63  34  34 NW21G30   30.06F
N. BATTLEFORD  SUNNY     70  36  28 S6        30.07F   C1F1C2F2C3F3C4F4C5F5C6F6C7F7C8F8C9F9CaFaCbFbCcFcCdFdCe!



USA.gov is the U.S. government's official web portal to all federal, state and local government web resources and services.